• In Uzbekistan
  • List of Countries
  • For 7 days
  • Water Temperature
  • Satellite Maps
  • Weather Map
  • Weather Widgets
  • user-avatar
    Login

    Hourly Weather Sydney

    Today, 24 February, Friday

    Time Temperature Precipitation Wind Pressure Humidity
    00:00 +20°C° 0 mm 4 mps 762 mmHg 86%
    01:00 +20°C° 0 mm 3 mps 762 mmHg 86%
    02:00 +20°C° 0 mm 3 mps 762 mmHg 88%
    03:00 +19°C° 0 mm 3 mps 762 mmHg 90%
    04:00 +19°C° 0 mm 3 mps 763 mmHg 92%
    05:00 +20°C° 0 mm 2 mps 763 mmHg 89%
    06:00 +21°C° 0 mm 2 mps 763 mmHg 86%
    07:00 +23°C° 0 mm 2 mps 764 mmHg 83%
    08:00 +25°C° 0 mm 2 mps 764 mmHg 74%
    09:00 +27°C° 0 mm 2 mps 764 mmHg 64%
    10:00 +28°C° 0 mm 2 mps 764 mmHg 66%
    11:00 +28°C° 0.1 mm 2 mps 764 mmHg 66%
    12:00 +28°C° 0.1 mm 3 mps 763 mmHg 67%
    13:00 +28°C° 0.1 mm 3 mps 763 mmHg 67%
    14:00 +28°C° 0 mm 3 mps 762 mmHg 67%
    15:00 +28°C° 0 mm 3 mps 762 mmHg 68%
    16:00 +28°C° 0 mm 3 mps 762 mmHg 68%
    17:00 +27°C° 0 mm 3 mps 762 mmHg 75%
    18:00 +26°C° 0 mm 3 mps 763 mmHg 81%
    19:00 +24°C° 0 mm 2 mps 763 mmHg 88%
    20:00 +24°C° 0.2 mm 2 mps 763 mmHg 89%
    21:00 +24°C° 0.2 mm 2 mps 764 mmHg 91%
    22:00 +24°C° 0 mm 2 mps 764 mmHg 93%
    23:00 +22°C° 0.7 mm 3 mps 764 mmHg 93%

    Tomorrow, 25 February, Saturday

    Time Temperature Precipitation Wind Pressure Humidity
    00:00 +22°C° 0.7 mm 4 mps 764 mmHg 92%
    01:00 +22°C° 0.7 mm 5 mps 763 mmHg 92%
    02:00 +22°C° 0.6 mm 5 mps 763 mmHg 91%
    03:00 +21°C° 0.6 mm 5 mps 763 mmHg 91%
    04:00 +21°C° 0.6 mm 5 mps 763 mmHg 90%
    05:00 +21°C° 0.6 mm 6 mps 763 mmHg 89%
    06:00 +21°C° 0.6 mm 6 mps 764 mmHg 88%
    07:00 +21°C° 0.6 mm 6 mps 764 mmHg 87%
    08:00 +20°C° 0.3 mm 6 mps 764 mmHg 86%
    09:00 +20°C° 0.3 mm 6 mps 764 mmHg 85%
    10:00 +20°C° 0.3 mm 6 mps 764 mmHg 84%
    11:00 +21°C° 0.2 mm 6 mps 764 mmHg 82%
    12:00 +21°C° 0.2 mm 6 mps 764 mmHg 81%
    13:00 +21°C° 0.2 mm 6 mps 764 mmHg 79%
    14:00 +21°C° 0.1 mm 6 mps 764 mmHg 79%
    15:00 +21°C° 0.1 mm 5 mps 763 mmHg 78%
    16:00 +22°C° 0.1 mm 5 mps 763 mmHg 78%
    17:00 +21°C° 0 mm 5 mps 763 mmHg 79%
    18:00 +21°C° 0 mm 4 mps 764 mmHg 80%
    19:00 +21°C° 0 mm 4 mps 764 mmHg 82%
    20:00 +20°C° 0.1 mm 4 mps 764 mmHg 83%
    21:00 +20°C° 0.1 mm 4 mps 764 mmHg 85%
    22:00 +20°C° 0.1 mm 4 mps 764 mmHg 86%
    23:00 +20°C° 0.3 mm 4 mps 764 mmHg 86%

    Day after tomorrow, 26 February, Sunday

    Time Temperature Precipitation Wind Pressure Humidity
    00:00 +20°C° 0.3 mm 4 mps 764 mmHg 86%
    01:00 +20°C° 0.3 mm 5 mps 763 mmHg 86%
    02:00 +19°C° 0.5 mm 5 mps 763 mmHg 88%
    03:00 +19°C° 0.5 mm 5 mps 763 mmHg 90%
    04:00 +19°C° 0.5 mm 5 mps 763 mmHg 92%
    05:00 +19°C° 0.5 mm 5 mps 764 mmHg 91%
    06:00 +19°C° 0.5 mm 5 mps 764 mmHg 90%
    07:00 +20°C° 0.5 mm 5 mps 764 mmHg 89%
    08:00 +21°C° 0.7 mm 5 mps 765 mmHg 81%
    09:00 +23°C° 0.7 mm 5 mps 765 mmHg 73%
    10:00 +25°C° 0.7 mm 5 mps 765 mmHg 65%
    11:00 +26°C° 0.5 mm 5 mps 765 mmHg 63%
    12:00 +26°C° 0.5 mm 5 mps 765 mmHg 61%
    13:00 +27°C° 0.5 mm 5 mps 764 mmHg 59%
    14:00 +26°C° 0.5 mm 5 mps 764 mmHg 61%
    15:00 +26°C° 0.5 mm 5 mps 764 mmHg 63%
    16:00 +26°C° 0.5 mm 5 mps 764 mmHg 65%
    17:00 +23°C° 0.9 mm 5 mps 764 mmHg 74%
    18:00 +21°C° 0.9 mm 5 mps 765 mmHg 84%
    19:00 +20°C° 0.9 mm 4 mps 765 mmHg 93%
    20:00 +20°C° 1.1 mm 5 mps 766 mmHg 94%
    21:00 +19°C° 1.1 mm 5 mps 766 mmHg 95%
    22:00 +19°C° 1.1 mm 5 mps 766 mmHg 96%
    23:00 +19°C° 0.7 mm 5 mps 766 mmHg 96%

    27 February, Monday

    Time Temperature Precipitation Wind Pressure Humidity
    00:00 +19°C° 0.7 mm 5 mps 766 mmHg 97%
    01:00 +19°C° 0.7 mm 5 mps 766 mmHg 97%
    02:00 +19°C° 0.4 mm 5 mps 765 mmHg 97%
    03:00 +19°C° 0.4 mm 5 mps 765 mmHg 96%
    04:00 +19°C° 0.4 mm 5 mps 765 mmHg 96%
    05:00 +19°C° 0.2 mm 4 mps 766 mmHg 95%
    06:00 +20°C° 0.2 mm 4 mps 766 mmHg 94%
    07:00 +20°C° 0.2 mm 4 mps 767 mmHg 93%
    08:00 +22°C° 0.4 mm 4 mps 767 mmHg 83%
    09:00 +25°C° 0.4 mm 4 mps 767 mmHg 74%
    10:00 +26°C° 0.4 mm 5 mps 767 mmHg 65%
    11:00 +27°C° 0.6 mm 5 mps 767 mmHg 60%
    12:00 +28°C° 0.6 mm 5 mps 766 mmHg 56%
    13:00 +29°C° 0.6 mm 5 mps 766 mmHg 52%
    14:00 +28°C° 0.8 mm 5 mps 766 mmHg 54%
    15:00 +28°C° 0.8 mm 4 mps 765 mmHg 57%
    16:00 +27°C° 0.8 mm 4 mps 765 mmHg 59%
    17:00 +26°C° 0.3 mm 4 mps 766 mmHg 69%
    18:00 +23°C° 0.3 mm 4 mps 766 mmHg 78%
    19:00 +21°C° 0.3 mm 3 mps 766 mmHg 87%
    20:00 +21°C° 0.3 mm 3 mps 767 mmHg 89%
    21:00 +20°C° 0.3 mm 3 mps 767 mmHg 91%
    22:00 +20°C° 0.3 mm 3 mps 767 mmHg 94%
    23:00 +20°C° 0.2 mm 2 mps 767 mmHg 94%

    28 February, Tuesday

    Time Temperature Precipitation Wind Pressure Humidity
    00:00 +20°C° 0.2 mm 2 mps 766 mmHg 95%
    01:00 +19°C° 0.2 mm 2 mps 766 mmHg 96%
    02:00 +19°C° 0.3 mm 2 mps 766 mmHg 96%
    03:00 +19°C° 0.3 mm 2 mps 766 mmHg 96%
    04:00 +19°C° 0.3 mm 2 mps 766 mmHg 96%
    05:00 +20°C° 0.1 mm 2 mps 766 mmHg 93%
    06:00 +21°C° 0.1 mm 2 mps 766 mmHg 90%
    07:00 +23°C° 0.1 mm 2 mps 767 mmHg 87%
    08:00 +24°C° 0.3 mm 2 mps 767 mmHg 79%
    09:00 +26°C° 0.3 mm 2 mps 767 mmHg 71%
    10:00 +28°C° 0.3 mm 2 mps 767 mmHg 63%
    11:00 +29°C° 0.2 mm 3 mps 767 mmHg 59%
    12:00 +29°C° 0.2 mm 3 mps 766 mmHg 56%
    13:00 +30°C° 0.2 mm 3 mps 766 mmHg 52%
    14:00 +30°C° 0 mm 4 mps 765 mmHg 53%
    15:00 +29°C° 0 mm 4 mps 765 mmHg 55%
    16:00 +29°C° 0 mm 4 mps 765 mmHg 56%
    17:00 +27°C° 0 mm 4 mps 765 mmHg 66%
    18:00 +25°C° 0 mm 4 mps 766 mmHg 76%
    19:00 +22°C° 0 mm 4 mps 766 mmHg 86%
    20:00 +22°C° 0 mm 3 mps 766 mmHg 89%
    21:00 +21°C° 0 mm 3 mps 767 mmHg 92%
    22:00 +20°C° 0 mm 3 mps 767 mmHg 95%
    23:00 +20°C° 0 mm 3 mps 766 mmHg 95%

    1 March, Wednesday

    Time Temperature Precipitation Wind Pressure Humidity
    00:00 +20°C° 0 mm 2 mps 766 mmHg 96%
    01:00 +20°C° 0 mm 2 mps 766 mmHg 96%
    02:00 +20°C° 0 mm 2 mps 766 mmHg 95%
    03:00 +21°C° 0 mm 2 mps 765 mmHg 94%
    04:00 +21°C° 0 mm 2 mps 765 mmHg 93%
    05:00 +23°C° 0.1 mm 2 mps 766 mmHg 91%
    06:00 +23°C° 0.1 mm 2 mps 766 mmHg 89%
    07:00 +24°C° 0.1 mm 3 mps 766 mmHg 87%
    08:00 +25°C° 0.3 mm 3 mps 766 mmHg 80%
    09:00 +26°C° 0.3 mm 3 mps 766 mmHg 73%
    10:00 +28°C° 0.3 mm 4 mps 766 mmHg 67%
    11:00 +28°C° 0.3 mm 4 mps 766 mmHg 63%
    12:00 +29°C° 0.3 mm 4 mps 765 mmHg 59%
    13:00 +30°C° 0.3 mm 4 mps 765 mmHg 55%
    14:00 +29°C° 0.1 mm 4 mps 764 mmHg 57%
    15:00 +29°C° 0.1 mm 5 mps 764 mmHg 58%
    16:00 +29°C° 0.1 mm 5 mps 764 mmHg 60%
    17:00 +27°C° 0 mm 4 mps 764 mmHg 69%
    18:00 +25°C° 0 mm 4 mps 765 mmHg 78%
    19:00 +23°C° 0 mm 4 mps 765 mmHg 87%
    20:00 +22°C° 0 mm 4 mps 765 mmHg 89%
    21:00 +22°C° 0 mm 3 mps 765 mmHg 92%
    22:00 +21°C° 0 mm 3 mps 766 mmHg 94%
    23:00 +22°C° 0 mm 3 mps 765 mmHg 94%
    Show more